GEO-KOMPSAT-2A

Last updated on Nov. 22, 2019, 4:19 a.m. UTC

1 43823U 18100A   19324.97015175 -.00000346  00000-0  00000+0 0  9997
2 43823   0.0029 155.1269 0000430 287.2419  94.8475  1.00264327  3591
UTC
Height (km)
Latitude
Longitude
Inclination
Orbital Period
UTC large
Height (km)
Speed (km/s)
/
Latitude / Longitude
Inclination (degrees)
Orbital Period (minutes)
Azimuth
Elevation
Range (km)
Doppler Factor
iOS Compass Heading
iOS Angle

Next 30 passes for location: Hong Kong

Rise time Rise Azimuth (degrees) Set time Set Azimuth (degrees) Duration Max altitude (degrees)

No matching passes for this satellites